STARLINK-32114, 60287

Orbit data source: Space-Track

STARLINK-32114, 60287 is a payload satellite owned by SpaceX/Seattle (US) in LEO that was launched on Sun, 28 Jul 2024 UTC via an FALCON 9 launch vehicle from the Air Force Eastern Test Range (AFETR). Payloads include a variety of satellites, spacecraft, and rockets equipped with specific instruments for various scientific and technological missions. These include communications satellites like Starlink; space stations such as the ISS; scientific satellites like the Hubble; Earth observation satellites from companies like Planet Labs, Umbra, and HawkEye 360; GPS; miniature CubeSats for education and research; and military/defense satellites.

Loading next visibility...
STARLINK-32114 details
Identifier
60287, 2024-132K
Orbit
LEO
Last TLE update16 hours ago
Origin
Flag of USSpaceX/Seattle (US)
ManufacturerSpaceX/Seattle
MissionOperational spacecraft
Bus & MotorSTARLINK V2M, Unknown motor
Mass730 kg wet, ~700 kg dry
Launch date (UTC)
2024-07-28 (5 months ago)
Launch vehicle
FALCON 9
Launch site
Air Force Eastern Test Range (AFETR)
Object type
Payload
Rocket body
Debris
Shape & HBRUnknown
Radar Cross SectionLarge (>1 m²)

Expand to show TLE details & history

TLE from 16 hours ago
0 STARLINK-32114
1 60287U 24132K   24355.86051605  .00003432  00000-0  12797-3 0  9996
2 60287  53.1616 314.2914 0001341  90.2133 269.9022 15.30198254 23607
Epoch: 2024-12-20T20:39Z
Definitive object data (Epoch: 2024-12-20T20:39:08.586Z)
Latitude0.00001°
Longitude-85.41433°
Altitude476.122 km
Speed7.629 km/s
True Right ascension20h 57m 09s
True Declination0° 00' 00"
Sunlit
Object was in daylight at TLE epoch
Visualization TLE readout
Latitude53.08925°
Longitude-5.83636°
Altitude480.817 km
Speed7.632 km/s
Apparent Right ascension00h 52m 56s
Apparent Declination9° 14' 41"
Sunlit
Object is in full shadow
Visualization observer readout
Local Sidereal Time11:43:50
Azimuth338.072° N
Elevation-38.301°
Doppler factor1
Orbital elements
Apogee altitude476.396 km
Perigee altitude474.557 km
Semi-major axis6,853.613 km
Eccentricity0.0001341
Inclination53.1616°
RAAN314.2914°
Arg. of periapsis90.2133°
True anomaly269.88683°
Mean anomaly269.9022°
Eccentric anomaly269.89452°
Mean motion3.82528 °/min
BSTAR0.00012797
Orbital period94.11 mins
Loading maneuver chart data...
Loading historical data...
Loading historical data...
Loading historical data...
Loading historical data...
Loading historical data...
Loading historical data...
Loading historical data...

STARLINK-32114 Visibility forecast

Observer location: undefined°, undefined

Span
Click to sort rows by Start time (UTC) header in descending order
Start Az.
Max El. time (UTC)
Max El. Az.
Max El.
End time (UTC)
End Az.
5 mins2024-12-21 23:28:00.292Z197.027° SSW2024-12-21 23:31:00.292Z114.917° SE31.082°2024-12-21 23:33:00.292Z71.351° E
4 mins2024-12-22 01:07:00.292Z289.692° WNW2024-12-22 01:09:00.292Z345.068° N24.869°2024-12-22 01:11:00.292Z25.072° NE
4 mins2024-12-22 06:04:00.292Z345.565° N2024-12-22 06:05:00.292Z14.003° NNE29.732°2024-12-22 06:08:00.292Z94.568° ESE
4 mins2024-12-22 07:42:00.292Z262.955° W2024-12-22 07:43:00.292Z236.94° WSW24.381°2024-12-22 07:46:00.292Z173.258° S
|